When you browse on this site, cookies collect data to enhance your experience and personalize the content and advertising you see.
Visit our Privacy Policy to learn more. By continuing to use the site, you agree to this use of cookies and data.
  • In Switzerland
  • List of Countries
  • For 7 days
  • Water Temperature
  • Weather Map
  • Weather Widgets
  • user-avatar
    Login

    Hourly Weather Malyhino

    Today, 20 October, Sunday

    Time Temperature Precipitation Wind Pressure Humidity
    00:00 +10°C° 0 mm 3 mps 751 mmHg 89%
    01:00 +10°C° 0 mm 3 mps 751 mmHg 89%
    02:00 +10°C° 0 mm 2 mps 751 mmHg 90%
    03:00 +10°C° 0 mm 2 mps 751 mmHg 89%
    04:00 +10°C° 0 mm 2 mps 751 mmHg 89%
    05:00 +10°C° 0 mm 2 mps 751 mmHg 88%
    06:00 +11°C° 0 mm 3 mps 751 mmHg 87%
    07:00 +11°C° 0 mm 3 mps 752 mmHg 86%
    08:00 +12°C° 0 mm 3 mps 752 mmHg 85%
    09:00 +13°C° 0 mm 3 mps 752 mmHg 81%
    10:00 +14°C° 0 mm 3 mps 752 mmHg 78%
    11:00 +15°C° 0 mm 4 mps 752 mmHg 74%
    12:00 +17°C° 0 mm 4 mps 752 mmHg 72%
    13:00 +17°C° 0 mm 4 mps 752 mmHg 69%
    14:00 +18°C° 0 mm 4 mps 752 mmHg 67%
    15:00 +17°C° 0 mm 4 mps 752 mmHg 72%
    16:00 +14°C° 0 mm 3 mps 752 mmHg 78%
    17:00 +13°C° 0 mm 3 mps 752 mmHg 83%
    18:00 +12°C° 0 mm 3 mps 752 mmHg 84%
    19:00 +12°C° 0 mm 3 mps 752 mmHg 86%
    20:00 +12°C° 0 mm 3 mps 752 mmHg 87%
    21:00 +11°C° 0 mm 3 mps 752 mmHg 88%
    22:00 +11°C° 0 mm 3 mps 752 mmHg 89%
    23:00 +11°C° 0 mm 3 mps 752 mmHg 89%

    Tomorrow, 21 October, Monday

    Time Temperature Precipitation Wind Pressure Humidity
    00:00 +11°C° 0 mm 3 mps 752 mmHg 90%
    01:00 +10°C° 0 mm 3 mps 752 mmHg 90%
    02:00 +10°C° 0 mm 3 mps 752 mmHg 90%
    03:00 +10°C° 0 mm 3 mps 752 mmHg 89%
    04:00 +10°C° 0 mm 3 mps 751 mmHg 89%
    05:00 +8°C° 0 mm 4 mps 751 mmHg 89%
    06:00 +10°C° 0 mm 4 mps 751 mmHg 85%
    07:00 +10°C° 0 mm 4 mps 751 mmHg 82%
    08:00 +11°C° 0 mm 4 mps 751 mmHg 78%
    09:00 +12°C° 0 mm 5 mps 751 mmHg 74%
    10:00 +13°C° 0 mm 5 mps 751 mmHg 70%
    11:00 +15°C° 0 mm 5 mps 750 mmHg 67%
    12:00 +15°C° 0 mm 5 mps 750 mmHg 67%
    13:00 +15°C° 0 mm 5 mps 750 mmHg 67%
    14:00 +16°C° 0 mm 5 mps 750 mmHg 67%
    15:00 +15°C° 0 mm 5 mps 750 mmHg 71%
    16:00 +14°C° 0 mm 4 mps 750 mmHg 76%
    17:00 +13°C° 0 mm 4 mps 749 mmHg 80%
    18:00 +13°C° 0 mm 4 mps 750 mmHg 83%
    19:00 +12°C° 0 mm 3 mps 750 mmHg 87%
    20:00 +11°C° 0 mm 3 mps 750 mmHg 90%
    21:00 +11°C° 0 mm 3 mps 750 mmHg 92%
    22:00 +12°C° 0 mm 2 mps 750 mmHg 93%
    23:00 +12°C° 0 mm 2 mps 750 mmHg 95%

    Day after tomorrow, 22 October, Tuesday

    Time Temperature Precipitation Wind Pressure Humidity
    00:00 +12°C° 0.1 mm 2 mps 751 mmHg 95%
    01:00 +12°C° 0.1 mm 2 mps 751 mmHg 95%
    02:00 +10°C° 0.1 mm 2 mps 752 mmHg 95%
    03:00 +9°C° 0 mm 2 mps 752 mmHg 95%
    04:00 +9°C° 0 mm 2 mps 752 mmHg 94%
    05:00 +8°C° 0 mm 2 mps 752 mmHg 94%
    06:00 +9°C° 0 mm 1 mps 753 mmHg 92%
    07:00 +10°C° 0 mm 1 mps 753 mmHg 91%
    08:00 +10°C° 0 mm 1 mps 753 mmHg 89%
    09:00 +11°C° 0 mm 1 mps 754 mmHg 82%
    10:00 +12°C° 0 mm 2 mps 754 mmHg 75%
    11:00 +13°C° 0 mm 2 mps 754 mmHg 68%
    12:00 +13°C° 0 mm 1 mps 754 mmHg 65%
    13:00 +14°C° 0 mm 1 mps 754 mmHg 62%
    14:00 +14°C° 0 mm 1 mps 754 mmHg 59%
    15:00 +13°C° 0 mm 1 mps 754 mmHg 64%
    16:00 +11°C° 0 mm 1 mps 754 mmHg 70%
    17:00 +9°C° 0 mm 0 mps 754 mmHg 76%
    18:00 +9°C° 0 mm 0 mps 754 mmHg 77%
    19:00 +9°C° 0 mm 0 mps 754 mmHg 77%
    20:00 +8°C° 0 mm 0 mps 754 mmHg 78%
    21:00 +9°C° 0 mm 1 mps 754 mmHg 79%
    22:00 +8°C° 0 mm 2 mps 753 mmHg 80%
    23:00 +8°C° 0 mm 2 mps 753 mmHg 81%

    23 October, Wednesday

    Time Temperature Precipitation Wind Pressure Humidity
    00:00 +8°C° 0 mm 2 mps 753 mmHg 82%
    01:00 +8°C° 0 mm 3 mps 753 mmHg 82%
    02:00 +8°C° 0 mm 3 mps 753 mmHg 83%
    03:00 +8°C° 0 mm 3 mps 752 mmHg 85%
    04:00 +8°C° 0 mm 3 mps 752 mmHg 87%
    05:00 +8°C° 0 mm 3 mps 752 mmHg 89%
    06:00 +8°C° 0 mm 3 mps 752 mmHg 89%
    07:00 +9°C° 0 mm 3 mps 751 mmHg 90%
    08:00 +10°C° 0 mm 3 mps 751 mmHg 91%
    09:00 +11°C° 0 mm 4 mps 751 mmHg 87%
    10:00 +13°C° 0 mm 4 mps 751 mmHg 83%
    11:00 +14°C° 0 mm 4 mps 750 mmHg 80%
    12:00 +15°C° 0 mm 4 mps 750 mmHg 78%
    13:00 +15°C° 0 mm 4 mps 750 mmHg 76%
    14:00 +17°C° 0 mm 4 mps 750 mmHg 74%
    15:00 +15°C° 0 mm 4 mps 749 mmHg 80%
    16:00 +13°C° 0 mm 3 mps 749 mmHg 85%
    17:00 +12°C° 0 mm 3 mps 749 mmHg 90%
    18:00 +12°C° 0 mm 3 mps 749 mmHg 91%
    19:00 +12°C° 0 mm 3 mps 749 mmHg 92%
    20:00 +12°C° 0 mm 2 mps 749 mmHg 93%
    21:00 +12°C° 0 mm 2 mps 749 mmHg 93%
    22:00 +12°C° 0 mm 2 mps 749 mmHg 93%
    23:00 +10°C° 0 mm 2 mps 749 mmHg 93%

    24 October, Thursday

    Time Temperature Precipitation Wind Pressure Humidity
    00:00 +10°C° 0 mm 2 mps 749 mmHg 94%
    01:00 +10°C° 0 mm 2 mps 749 mmHg 94%
    02:00 +11°C° 0 mm 1 mps 749 mmHg 94%
    03:00 +11°C° 0 mm 1 mps 749 mmHg 94%
    04:00 +10°C° 0 mm 1 mps 749 mmHg 94%
    05:00 +9°C° 0 mm 0 mps 749 mmHg 95%
    06:00 +10°C° 0 mm 0 mps 749 mmHg 93%
    07:00 +10°C° 0 mm 0 mps 749 mmHg 92%
    08:00 +11°C° 0 mm 0 mps 749 mmHg 91%
    09:00 +12°C° 0 mm 0 mps 749 mmHg 87%
    10:00 +13°C° 0 mm 0 mps 749 mmHg 83%
    11:00 +14°C° 0 mm 0 mps 749 mmHg 79%
    12:00 +14°C° 0 mm 0 mps 749 mmHg 78%
    13:00 +14°C° 0 mm 0 mps 749 mmHg 76%
    14:00 +16°C° 0 mm 1 mps 749 mmHg 75%
    15:00 +15°C° 0 mm 1 mps 749 mmHg 79%
    16:00 +14°C° 0 mm 1 mps 749 mmHg 84%
    17:00 +13°C° 0 mm 1 mps 749 mmHg 88%
    18:00 +13°C° 0 mm 1 mps 750 mmHg 89%
    19:00 +12°C° 0 mm 1 mps 750 mmHg 90%
    20:00 +12°C° 0 mm 2 mps 750 mmHg 91%
    21:00 +12°C° 0 mm 2 mps 750 mmHg 92%
    22:00 +10°C° 0 mm 2 mps 750 mmHg 92%
    23:00 +10°C° 0 mm 2 mps 750 mmHg 93%

    25 October, Friday

    Time Temperature Precipitation Wind Pressure Humidity
    00:00 +11°C° 0 mm 1 mps 750 mmHg 93%
    01:00 +11°C° 0 mm 1 mps 751 mmHg 93%
    02:00 +11°C° 0 mm 1 mps 751 mmHg 92%
    03:00 +10°C° 0 mm 1 mps 751 mmHg 93%
    04:00 +10°C° 0 mm 1 mps 751 mmHg 93%
    05:00 +10°C° 0 mm 1 mps 751 mmHg 93%
    06:00 +10°C° 0 mm 1 mps 751 mmHg 92%
    07:00 +10°C° 0 mm 2 mps 751 mmHg 91%
    08:00 +10°C° 0 mm 2 mps 751 mmHg 90%
    09:00 +12°C° 0 mm 2 mps 751 mmHg 84%
    10:00 +14°C° 0 mm 2 mps 751 mmHg 79%
    11:00 +15°C° 0 mm 2 mps 751 mmHg 74%
    12:00 +16°C° 0 mm 2 mps 751 mmHg 73%
    13:00 +16°C° 0 mm 3 mps 751 mmHg 71%
    14:00 +17°C° 0 mm 3 mps 751 mmHg 70%
    15:00 +14°C° 0 mm 3 mps 751 mmHg 74%
    16:00 +14°C° 0 mm 2 mps 751 mmHg 79%
    17:00 +13°C° 0 mm 2 mps 751 mmHg 84%
    18:00 +12°C° 0 mm 2 mps 751 mmHg 85%
    19:00 +11°C° 0 mm 3 mps 751 mmHg 85%
    20:00 +10°C° 0 mm 3 mps 751 mmHg 86%
    21:00 +10°C° 0 mm 3 mps 751 mmHg 86%
    22:00 +10°C° 0 mm 3 mps 751 mmHg 86%
    23:00 +9°C° 0 mm 2 mps 751 mmHg 87%
    Show more